owner,sensor,date,latitude,longitude,vertical_datum,direction_of_sea_water_velocity,sea_water_speed,upward_sea_water_velocity,qcFlag 
ADCP,ioos:station:wmo:42390:1,2017-12-01T00:27:00Z,26.1290,-94.8980,63.4,345.0,25.6,0.6,'1111122,1111122,1111122' 
ADCP,ioos:station:wmo:42390:1,2017-12-01T01:47:00Z,26.1290,-94.8980,63.4,334.0,34.6,3.2,'1111122,1111122,1111122' 
ADCP,ioos:station:wmo:42390:1,2017-12-01T03:07:00Z,26.1290,-94.8980,63.4,332.0,32.7,3.3,'1111122,1111122,1111122' 
ADCP,ioos:station:wmo:42390:1,2017-12-01T04:27:00Z,26.1290,-94.8980,63.4,328.0,34.7,4.4,'1111122,1111122,1111122' 
ADCP,ioos:station:wmo:42390:1,2017-12-01T05:47:00Z,26.1290,-94.8980,63.4,318.0,27.6,6.2,'1111122,1111122,1111122' 
ADCP,ioos:station:wmo:42390:1,2017-12-01T07:07:00Z,26.1290,-94.8980,63.4,321.0,25.5,9.4,'1111122,1111122,1111122' 
ADCP,ioos:station:wmo:42390:1,2017-12-01T08:27:00Z,26.1290,-94.8980,63.4,344.0,27.3,8.0,'1111122,1111122,1111122' 
ADCP,ioos:station:wmo:42390:1,2017-12-01T09:47:00Z,26.1290,-94.8980,63.4,2.0,20.9,9.3,'1111122,1111122,1111122' 
ADCP,ioos:station:wmo:42390:1,2017-12-01T11:07:00Z,26.1290,-94.8980,63.3,8.0,29.2,10.0,'1111122,1111122,1111122' 
ADCP,ioos:station:wmo:42390:1,2017-12-01T12:27:00Z,26.1290,-94.8980,63.4,37.0,31.5,9.8,'1111122,1111122,1111122' 
ADCP,ioos:station:wmo:42390:1,2017-12-01T13:47:00Z,26.1290,-94.8980,63.4,20.0,36.8,6.3,'1111122,1111122,1111122' 
ADCP,ioos:station:wmo:42390:1,2017-12-01T15:07:00Z,26.1290,-94.8980,63.4,15.0,40.7,8.3,'1111122,1111122,1111122' 
ADCP,ioos:station:wmo:42390:1,2017-12-01T16:07:00Z,26.1290,-94.8980,63.3,5.0,38.2,4.3,'1111122,1111122,1111122' 
ADCP,ioos:station:wmo:42390:1,2017-12-01T17:27:00Z,26.1290,-94.8980,63.4,5.0,44.4,1.5,'1111122,1111122,1111122' 
ADCP,ioos:station:wmo:42390:1,2017-12-01T18:47:00Z,26.1290,-94.8980,63.4,4.0,31.8,4.0,'1111122,1111122,1111122' 
ADCP,ioos:station:wmo:42390:1,2017-12-01T20:07:00Z,26.1290,-94.8980,63.4,352.0,38.2,2.5,'1111122,1111122,1111122' 
ADCP,ioos:station:wmo:42390:1,2017-12-01T21:27:00Z,26.1290,-94.8980,63.4,344.0,37.1,-3.6,'1111122,1111122,1111122' 
ADCP,ioos:station:wmo:42390:1,2017-12-02T00:07:00Z,26.1290,-94.8980,63.4,358.0,32.8,-4.1,'1111122,1111122,1111122' 
ADCP,ioos:station:wmo:42390:1,2017-12-02T01:27:00Z,26.1290,-94.8980,63.4,346.0,30.8,-6.2,'1111122,1111122,1111122' 
ADCP,ioos:station:wmo:42390:1,2017-12-02T02:47:00Z,26.1290,-94.8980,63.3,341.0,37.9,-7.0,'1111122,1111122,1111122' 
ADCP,ioos:station:wmo:42390:1,2017-12-02T04:07:00Z,26.1290,-94.8980,63.3,347.0,52.4,-9.0,'1111122,1111122,1111122' 
ADCP,ioos:station:wmo:42390:1,2017-12-02T05:27:00Z,26.1290,-94.8980,63.4,344.0,45.8,-3.4,'1111122,1111122,1111122' 
ADCP,ioos:station:wmo:42390:1,2017-12-02T06:47:00Z,26.1290,-94.8980,63.3,353.0,40.0,10.7,'1111122,1111122,1111122' 
ADCP,ioos:station:wmo:42390:1,2017-12-02T08:07:00Z,26.1290,-94.8980,63.4,355.0,39.9,12.1,'1111122,1111122,1111122' 
ADCP,ioos:station:wmo:42390:1,2017-12-02T09:27:00Z,26.1290,-94.8980,63.4,351.0,45.0,13.9,'1111122,1111122,1111122' 
ADCP,ioos:station:wmo:42390:1,2017-12-02T10:47:00Z,26.1290,-94.8980,63.4,353.0,37.0,19.2,'1111122,1111122,1111122' 
ADCP,ioos:station:wmo:42390:1,2017-12-02T12:07:00Z,26.1290,-94.8980,63.3,353.0,45.4,19.9,'1111122,1111122,1111122' 
ADCP,ioos:station:wmo:42390:1,2017-12-02T13:27:00Z,26.1290,-94.8980,63.3,356.0,45.6,12.2,'1111122,1111122,1111122' 
ADCP,ioos:station:wmo:42390:1,2017-12-02T14:47:00Z,26.1290,-94.8980,63.3,9.0,33.7,12.9,'1111122,1111122,1111122' 
ADCP,ioos:station:wmo:42390:1,2017-12-02T16:07:00Z,26.1290,-94.8980,63.3,357.0,35.4,6.0,'1111122,1111122,1111122' 
ADCP,ioos:station:wmo:42390:1,2017-12-02T17:27:00Z,26.1290,-94.8980,63.4,4.0,45.8,2.6,'1111122,1111122,1111122' 
ADCP,ioos:station:wmo:42390:1,2017-12-02T18:47:00Z,26.1290,-94.8980,63.4,16.0,44.2,2.3,'1111122,1111122,1111122' 
ADCP,ioos:station:wmo:42390:1,2017-12-02T20:07:00Z,26.1290,-94.8980,63.3,21.0,41.7,4.4,'1111122,1111122,1111122' 
ADCP,ioos:station:wmo:42390:1,2017-12-02T21:27:00Z,26.1290,-94.8980,63.4,12.0,43.8,4.2,'1111122,1111122,1111122' 
ADCP,ioos:station:wmo:42390:1,2017-12-02T22:47:00Z,26.1290,-94.8980,63.4,358.0,30.5,-0.2,'1111122,1111122,1111122' 
ADCP,ioos:station:wmo:42390:1,2017-12-03T00:07:00Z,26.1290,-94.8980,63.4,1.0,51.3,-0.2,'1111122,1111122,1111122' 
ADCP,ioos:station:wmo:42390:1,2017-12-03T01:27:00Z,26.1290,-94.8980,63.3,351.0,47.4,1.2,'1111122,1111122,1111122' 
ADCP,ioos:station:wmo:42390:1,2017-12-03T02:47:00Z,26.1290,-94.8980,63.4,349.0,45.0,10.8,'1111122,1111122,1111122' 
ADCP,ioos:station:wmo:42390:1,2017-12-03T04:07:00Z,26.1290,-94.8980,63.3,346.0,70.2,-0.9,'1111122,1111122,1111122' 
ADCP,ioos:station:wmo:42390:1,2017-12-03T05:27:00Z,26.1290,-94.8980,63.4,352.0,57.7,9.5,'1111122,1111122,1111122' 
ADCP,ioos:station:wmo:42390:1,2017-12-03T06:47:00Z,26.1290,-94.8980,63.4,353.0,61.1,7.3,'1111122,1111122,1111122' 
ADCP,ioos:station:wmo:42390:1,2017-12-03T08:07:00Z,26.1290,-94.8980,63.4,358.0,52.2,15.2,'1111122,1111122,1111122' 
ADCP,ioos:station:wmo:42390:1,2017-12-03T09:27:00Z,26.1290,-94.8980,63.3,359.0,57.8,11.4,'1111122,1111122,1111122' 
ADCP,ioos:station:wmo:42390:1,2017-12-03T10:47:00Z,26.1290,-94.8980,63.3,356.0,73.2,4.9,'1111122,1111122,1111122' 
ADCP,ioos:station:wmo:42390:1,2017-12-03T12:07:00Z,26.1290,-94.8980,63.4,9.0,57.8,12.3,'1111122,1111122,1111122' 
ADCP,ioos:station:wmo:42390:1,2017-12-03T13:27:00Z,26.1290,-94.8980,63.4,9.0,53.1,2.6,'1111122,1111122,1111122' 
ADCP,ioos:station:wmo:42390:1,2017-12-03T14:47:00Z,26.1290,-94.8980,63.3,14.0,45.7,2.5,'1111122,1111122,1111122' 
ADCP,ioos:station:wmo:42390:1,2017-12-03T16:07:00Z,26.1290,-94.8980,63.3,15.0,43.4,6.1,'1111122,1111122,1111122' 
ADCP,ioos:station:wmo:42390:1,2017-12-03T17:27:00Z,26.1290,-94.8980,63.4,9.0,35.5,4.8,'1111122,1111122,1111122' 
ADCP,ioos:station:wmo:42390:1,2017-12-03T18:47:00Z,26.1290,-94.8980,63.4,8.0,41.4,2.2,'1111122,1111122,1111122' 
ADCP,ioos:station:wmo:42390:1,2017-12-03T20:07:00Z,26.1290,-94.8980,63.4,6.0,51.2,0.5,'1111122,1111122,1111122' 
ADCP,ioos:station:wmo:42390:1,2017-12-03T21:27:00Z,26.1290,-94.8980,63.4,1.0,41.8,1.3,'1111122,1111122,1111122' 
ADCP,ioos:station:wmo:42390:1,2017-12-04T01:27:00Z,26.1290,-94.8980,63.4,350.0,39.3,2.7,'1111122,1111122,1111122' 
ADCP,ioos:station:wmo:42390:1,2017-12-04T02:47:00Z,26.1290,-94.8980,63.3,346.0,36.7,-6.8,'1111122,1111122,1111122' 
ADCP,ioos:station:wmo:42390:1,2017-12-04T04:07:00Z,26.1290,-94.8980,63.4,359.0,32.3,-2.0,'1111122,1111122,1111122' 
ADCP,ioos:station:wmo:42390:1,2017-12-04T05:27:00Z,26.1290,-94.8980,63.4,12.0,36.8,4.0,'1111122,1111122,1111122' 
ADCP,ioos:station:wmo:42390:1,2017-12-04T06:47:00Z,26.1290,-94.8980,63.3,0.0,47.7,2.0,'1111122,1114422,1111122' 
ADCP,ioos:station:wmo:42390:1,2017-12-04T08:07:00Z,26.1290,-94.8980,63.4,10.0,61.6,0.8,'1111122,1111122,1111122' 
ADCP,ioos:station:wmo:42390:1,2017-12-04T09:27:00Z,26.1290,-94.8980,63.4,6.0,46.3,10.8,'1111122,1111122,1111122' 
ADCP,ioos:station:wmo:42390:1,2017-12-04T10:47:00Z,26.1290,-94.8980,63.4,2.0,48.2,13.0,'1111122,1111122,1111122' 
ADCP,ioos:station:wmo:42390:1,2017-12-04T12:07:00Z,26.1290,-94.8980,63.4,359.0,45.7,15.2,'1111122,1111122,1111122' 
ADCP,ioos:station:wmo:42390:1,2017-12-04T13:27:00Z,26.1290,-94.8980,63.4,358.0,44.9,10.6,'1111122,1111122,1111122' 
ADCP,ioos:station:wmo:42390:1,2017-12-04T14:47:00Z,26.1290,-94.8980,63.4,358.0,40.0,5.6,'1111122,1111122,1111122' 
ADCP,ioos:station:wmo:42390:1,2017-12-04T16:07:00Z,26.1290,-94.8980,63.4,354.0,37.7,10.1,'1111122,1111122,1111122' 
ADCP,ioos:station:wmo:42390:1,2017-12-04T17:27:00Z,26.1290,-94.8980,63.4,359.0,33.8,3.8,'1111122,1111122,1111122' 
ADCP,ioos:station:wmo:42390:1,2017-12-04T18:47:00Z,26.1290,-94.8980,63.4,39.0,25.8,-0.7,'1111122,1111122,1111122' 
ADCP,ioos:station:wmo:42390:1,2017-12-04T20:07:00Z,26.1290,-94.8980,63.4,34.0,36.6,1.7,'1111122,1111122,1111122' 
ADCP,ioos:station:wmo:42390:1,2017-12-04T21:27:00Z,26.1290,-94.8980,63.4,26.0,38.0,3.6,'1111122,1111122,1111122' 
ADCP,ioos:station:wmo:42390:1,2017-12-04T22:47:00Z,26.1290,-94.8980,63.4,7.0,31.6,1.9,'1111122,1111122,1111122' 
ADCP,ioos:station:wmo:42390:1,2017-12-05T00:07:00Z,26.1290,-94.8980,63.4,0.0,47.0,-4.3,'1111122,1114422,1111122' 
ADCP,ioos:station:wmo:42390:1,2017-12-05T01:27:00Z,26.1290,-94.8980,63.4,354.0,44.3,2.9,'1111122,1111122,1111122' 
ADCP,ioos:station:wmo:42390:1,2017-12-05T02:47:00Z,26.1290,-94.8980,63.4,359.0,31.4,6.6,'1111122,1111122,1111122' 
ADCP,ioos:station:wmo:42390:1,2017-12-05T04:07:00Z,26.1290,-94.8980,63.4,2.0,34.2,6.9,'1111122,1111122,1111122' 
ADCP,ioos:station:wmo:42390:1,2017-12-05T05:27:00Z,26.1290,-94.8980,63.4,6.0,33.2,13.1,'1111122,1111122,1111122' 
ADCP,ioos:station:wmo:42390:1,2017-12-05T06:47:00Z,26.1290,-94.8980,63.4,356.0,37.7,11.0,'1111122,1111122,1111122' 
ADCP,ioos:station:wmo:42390:1,2017-12-05T08:07:00Z,26.1290,-94.8980,63.4,353.0,36.5,11.0,'1111122,1111122,1111122' 
ADCP,ioos:station:wmo:42390:1,2017-12-05T09:27:00Z,26.1290,-94.8980,63.4,351.0,37.7,10.9,'1111122,1111122,1111122' 
ADCP,ioos:station:wmo:42390:1,2017-12-05T10:47:00Z,26.1290,-94.8980,63.4,5.0,36.3,9.6,'1111122,1111122,1111122' 
ADCP,ioos:station:wmo:42390:1,2017-12-05T12:07:00Z,26.1290,-94.8980,63.4,1.0,40.8,14.0,'1111122,1111122,1111122' 
ADCP,ioos:station:wmo:42390:1,2017-12-05T13:27:00Z,26.1290,-94.8980,63.4,5.0,32.9,11.3,'1111122,1111122,1111122' 
ADCP,ioos:station:wmo:42390:1,2017-12-05T14:47:00Z,26.1290,-94.8980,63.4,4.0,40.1,4.6,'1111122,1111122,1111122' 
ADCP,ioos:station:wmo:42390:1,2017-12-05T16:07:00Z,26.1290,-94.8980,63.3,359.0,43.0,5.8,'1111122,1111122,1111122' 
ADCP,ioos:station:wmo:42390:1,2017-12-05T17:27:00Z,26.1290,-94.8980,63.4,357.0,37.4,5.7,'1111122,1111122,1111122' 
ADCP,ioos:station:wmo:42390:1,2017-12-05T18:47:00Z,26.1290,-94.8980,63.4,357.0,36.9,7.2,'1111122,1111122,1111122' 
ADCP,ioos:station:wmo:42390:1,2017-12-05T20:07:00Z,26.1290,-94.8980,63.4,359.0,37.6,5.9,'1111122,1111122,1111122' 
ADCP,ioos:station:wmo:42390:1,2017-12-05T21:27:00Z,26.1290,-94.8980,63.4,352.0,35.2,7.2,'1111122,1111122,1111122' 
ADCP,ioos:station:wmo:42390:1,2017-12-05T22:47:00Z,26.1290,-94.8980,63.4,347.0,38.6,4.2,'1111122,1111122,1111122' 
ADCP,ioos:station:wmo:42390:1,2017-12-06T00:07:00Z,26.1290,-94.8980,63.4,339.0,53.6,0.9,'1111122,1111122,1111122' 
ADCP,ioos:station:wmo:42390:1,2017-12-06T01:27:00Z,26.1290,-94.8980,63.4,347.0,54.1,6.3,'1111122,1111122,1111122' 
ADCP,ioos:station:wmo:42390:1,2017-12-06T02:47:00Z,26.1290,-94.8980,63.4,351.0,53.5,11.2,'1111122,1111122,1111122' 
ADCP,ioos:station:wmo:42390:1,2017-12-06T04:07:00Z,26.1290,-94.8980,63.3,348.0,60.0,3.3,'1111122,1111122,1111122' 
ADCP,ioos:station:wmo:42390:1,2017-12-06T05:17:00Z,26.1290,-94.8980,63.3,345.0,43.9,18.5,'1111122,1111122,1111122' 
ADCP,ioos:station:wmo:42390:1,2017-12-06T06:47:00Z,26.1290,-94.8980,63.4,340.0,38.9,14.0,'1111122,1111122,1111122' 
ADCP,ioos:station:wmo:42390:1,2017-12-06T08:07:00Z,26.1290,-94.8980,63.4,347.0,49.9,3.8,'1111122,1111122,1111122' 
ADCP,ioos:station:wmo:42390:1,2017-12-06T09:27:00Z,26.1290,-94.8980,63.3,5.0,34.4,4.2,'1111122,1111122,1111122' 
ADCP,ioos:station:wmo:42390:1,2017-12-06T10:47:00Z,26.1290,-94.8980,63.4,12.0,41.5,16.7,'1111122,1111122,1111122' 
ADCP,ioos:station:wmo:42390:1,2017-12-06T12:07:00Z,26.1290,-94.8980,63.4,2.0,48.2,10.8,'1111122,1111122,1111122' 
ADCP,ioos:station:wmo:42390:1,2017-12-06T13:27:00Z,26.1290,-94.8980,63.4,352.0,23.1,10.6,'1111122,1111122,1111122' 
ADCP,ioos:station:wmo:42390:1,2017-12-06T14:47:00Z,26.1290,-94.8980,63.4,354.0,36.9,4.2,'1111122,1111122,1111122' 
ADCP,ioos:station:wmo:42390:1,2017-12-06T16:07:00Z,26.1290,-94.8980,63.4,349.0,45.8,6.1,'1111122,1111122,1111122' 
ADCP,ioos:station:wmo:42390:1,2017-12-06T17:27:00Z,26.1290,-94.8980,63.4,353.0,40.5,5.7,'1111122,1111122,1111122' 
ADCP,ioos:station:wmo:42390:1,2017-12-06T18:47:00Z,26.1290,-94.8980,63.4,356.0,41.3,6.3,'1111122,1111122,1111122' 
ADCP,ioos:station:wmo:42390:1,2017-12-06T20:07:00Z,26.1290,-94.8980,63.4,350.0,38.9,8.2,'1111122,1111122,1111122' 
ADCP,ioos:station:wmo:42390:1,2017-12-06T21:27:00Z,26.1290,-94.8980,63.4,348.0,36.2,7.2,'1111122,1111122,1111122' 
ADCP,ioos:station:wmo:42390:1,2017-12-06T22:47:00Z,26.1290,-94.8980,63.4,348.0,26.2,6.0,'1111122,1111122,1111122' 
ADCP,ioos:station:wmo:42390:1,2017-12-07T00:07:00Z,26.1290,-94.8980,63.4,342.0,51.4,-1.9,'1111122,1111122,1111122' 
ADCP,ioos:station:wmo:42390:1,2017-12-07T01:27:00Z,26.1290,-94.8980,63.4,325.0,33.6,4.5,'1111122,1111122,1111122' 
ADCP,ioos:station:wmo:42390:1,2017-12-07T02:47:00Z,26.1290,-94.8980,63.4,326.0,38.1,6.3,'1111122,1111122,1111122' 
ADCP,ioos:station:wmo:42390:1,2017-12-07T04:07:00Z,26.1290,-94.8980,63.3,317.0,37.2,6.5,'1111122,1111122,1111122' 
ADCP,ioos:station:wmo:42390:1,2017-12-07T05:27:00Z,26.1290,-94.8980,63.4,323.0,37.8,6.3,'1111122,1111122,1111122' 
ADCP,ioos:station:wmo:42390:1,2017-12-07T06:47:00Z,26.1290,-94.8980,63.3,323.0,40.7,9.7,'1111122,1111122,1111122' 
ADCP,ioos:station:wmo:42390:1,2017-12-07T08:07:00Z,26.1290,-94.8980,63.4,342.0,43.8,12.6,'1111122,1111122,1111122' 
ADCP,ioos:station:wmo:42390:1,2017-12-07T09:27:00Z,26.1290,-94.8980,63.4,336.0,39.9,15.1,'1111122,1111122,1111122' 
ADCP,ioos:station:wmo:42390:1,2017-12-07T10:47:00Z,26.1290,-94.8980,63.4,349.0,45.6,14.9,'1111122,1111122,1111122' 
ADCP,ioos:station:wmo:42390:1,2017-12-07T12:07:00Z,26.1290,-94.8980,63.3,352.0,44.3,15.6,'1111122,1111122,1111122' 
ADCP,ioos:station:wmo:42390:1,2017-12-07T13:27:00Z,26.1290,-94.8980,63.3,330.0,16.1,6.2,'1111122,1111122,1111122' 
ADCP,ioos:station:wmo:42390:1,2017-12-07T14:47:00Z,26.1290,-94.8980,63.4,348.0,31.0,3.0,'1111122,1111122,1111122' 
ADCP,ioos:station:wmo:42390:1,2017-12-07T16:07:00Z,26.1290,-94.8980,63.3,348.0,48.5,1.1,'1111122,1111122,1111122' 
ADCP,ioos:station:wmo:42390:1,2017-12-07T17:27:00Z,26.1290,-94.8980,63.4,345.0,7.9,9.8,'1111122,1111122,1111122' 
ADCP,ioos:station:wmo:42390:1,2017-12-07T18:47:00Z,26.1290,-94.8980,63.4,344.0,39.2,9.4,'1111122,1111122,1111122' 
ADCP,ioos:station:wmo:42390:1,2017-12-07T22:47:00Z,26.1290,-94.8980,63.3,5.0,26.7,0.3,'1111122,1111122,1111122' 
ADCP,ioos:station:wmo:42390:1,2017-12-08T00:07:00Z,26.1290,-94.8980,63.4,358.0,39.4,10.8,'1111122,1111122,1111122' 
ADCP,ioos:station:wmo:42390:1,2017-12-08T01:27:00Z,26.1290,-94.8980,63.3,352.0,37.8,10.3,'1111122,1111122,1111122' 
ADCP,ioos:station:wmo:42390:1,2017-12-08T02:47:00Z,26.1290,-94.8980,63.4,357.0,42.2,10.4,'1111122,1111122,1111122' 
ADCP,ioos:station:wmo:42390:1,2017-12-08T04:07:00Z,26.1290,-94.8980,63.4,345.0,34.8,12.5,'1111122,1111122,1111122' 
ADCP,ioos:station:wmo:42390:1,2017-12-08T05:27:00Z,26.1290,-94.8980,63.3,348.0,39.9,14.3,'1111122,1111122,1111122' 
ADCP,ioos:station:wmo:42390:1,2017-12-08T06:47:00Z,26.1290,-94.8980,63.4,338.0,41.7,13.3,'1111122,1111122,1111122' 
ADCP,ioos:station:wmo:42390:1,2017-12-08T08:07:00Z,26.1290,-94.8980,63.4,341.0,48.5,13.7,'1111122,1111122,1111122' 
ADCP,ioos:station:wmo:42390:1,2017-12-08T09:27:00Z,26.1290,-94.8980,63.4,332.0,44.2,9.7,'1111122,1111122,1111122' 
ADCP,ioos:station:wmo:42390:1,2017-12-08T10:47:00Z,26.1290,-94.8980,63.4,334.0,41.1,10.4,'1111122,1111122,1111122' 
ADCP,ioos:station:wmo:42390:1,2017-12-08T12:07:00Z,26.1290,-94.8980,63.4,347.0,50.4,16.1,'1111122,1111122,1111122' 
ADCP,ioos:station:wmo:42390:1,2017-12-08T13:27:00Z,26.1290,-94.8980,63.4,335.0,25.2,0.2,'1111122,1111122,1111122' 
ADCP,ioos:station:wmo:42390:1,2017-12-08T16:07:00Z,26.1290,-94.8980,63.3,354.0,36.1,6.0,'1111122,1111122,1111122' 
ADCP,ioos:station:wmo:42390:1,2017-12-08T17:27:00Z,26.1290,-94.8980,63.3,345.0,19.6,6.6,'1111122,1111122,1111122' 
ADCP,ioos:station:wmo:42390:1,2017-12-08T18:47:00Z,26.1290,-94.8980,63.4,340.0,26.0,6.3,'1111122,1111122,1111122' 
ADCP,ioos:station:wmo:42390:1,2017-12-08T20:07:00Z,26.1290,-94.8980,63.4,349.0,27.6,3.8,'1111122,1111122,1111122' 
ADCP,ioos:station:wmo:42390:1,2017-12-08T21:27:00Z,26.1290,-94.8980,63.4,352.0,23.7,1.7,'1111122,1111122,1111122' 
ADCP,ioos:station:wmo:42390:1,2017-12-08T22:47:00Z,26.1290,-94.8980,63.4,353.0,19.3,0.1,'1111122,1111122,1111122' 
ADCP,ioos:station:wmo:42390:1,2017-12-09T00:07:00Z,26.1290,-94.8980,63.3,342.0,42.9,6.4,'1111122,1111122,1111122' 
ADCP,ioos:station:wmo:42390:1,2017-12-09T01:27:00Z,26.1290,-94.8980,63.4,342.0,47.1,10.1,'1111122,1111122,1111122' 
ADCP,ioos:station:wmo:42390:1,2017-12-09T02:47:00Z,26.1290,-94.8980,63.3,341.0,41.6,10.6,'1111122,1111122,1111122' 
ADCP,ioos:station:wmo:42390:1,2017-12-09T04:07:00Z,26.1290,-94.8980,63.4,345.0,51.7,14.1,'1111122,1111122,1111122' 
ADCP,ioos:station:wmo:42390:1,2017-12-09T05:27:00Z,26.1290,-94.8980,63.4,352.0,48.4,17.7,'1111122,1111122,1111122' 
ADCP,ioos:station:wmo:42390:1,2017-12-09T06:47:00Z,26.1290,-94.8980,63.4,356.0,55.3,19.9,'1111122,1111122,1111122' 
ADCP,ioos:station:wmo:42390:1,2017-12-09T08:07:00Z,26.1290,-94.8980,63.4,351.0,52.5,19.8,'1111122,1111122,1111122' 
ADCP,ioos:station:wmo:42390:1,2017-12-09T09:47:00Z,26.1290,-94.8980,63.4,342.0,52.5,19.5,'1111122,1111122,1111122' 
ADCP,ioos:station:wmo:42390:1,2017-12-09T11:27:00Z,26.1290,-94.8980,63.4,342.0,53.5,18.4,'1111122,1111122,1111122' 
ADCP,ioos:station:wmo:42390:1,2017-12-09T12:47:00Z,26.1290,-94.8980,63.4,333.0,32.4,5.1,'1111122,1111122,1111122' 
ADCP,ioos:station:wmo:42390:1,2017-12-09T14:07:00Z,26.1290,-94.8980,63.3,344.0,42.2,7.7,'1111122,1111122,1111122' 
ADCP,ioos:station:wmo:42390:1,2017-12-09T15:47:00Z,26.1290,-94.8980,63.4,334.0,49.6,11.4,'1111122,1111122,1111122' 
ADCP,ioos:station:wmo:42390:1,2017-12-09T17:07:00Z,26.1290,-94.8980,63.3,341.0,49.3,12.5,'1111122,1111122,1111122' 
ADCP,ioos:station:wmo:42390:1,2017-12-09T18:27:00Z,26.1290,-94.8980,63.4,339.0,43.6,11.9,'1111122,1111122,1111122' 
ADCP,ioos:station:wmo:42390:1,2017-12-09T19:47:00Z,26.1290,-94.8980,63.4,342.0,37.4,9.3,'1111122,1111122,1111122' 
ADCP,ioos:station:wmo:42390:1,2017-12-09T21:07:00Z,26.1290,-94.8980,63.4,343.0,34.9,11.0,'1111122,1111122,1111122' 
ADCP,ioos:station:wmo:42390:1,2017-12-09T22:27:00Z,26.1290,-94.8980,63.4,341.0,15.5,3.5,'1111122,1111122,1111122' 
ADCP,ioos:station:wmo:42390:1,2017-12-10T00:07:00Z,26.1290,-94.8980,63.4,343.0,59.4,12.4,'1111122,1111122,1111122' 
ADCP,ioos:station:wmo:42390:1,2017-12-10T01:47:00Z,26.1290,-94.8980,63.3,345.0,44.5,15.5,'1111122,1111122,1111122' 
ADCP,ioos:station:wmo:42390:1,2017-12-10T03:27:00Z,26.1290,-94.8980,63.4,341.0,42.0,15.6,'1111122,1111122,1111122' 
ADCP,ioos:station:wmo:42390:1,2017-12-10T05:07:00Z,26.1290,-94.8980,63.4,339.0,37.5,14.9,'1111122,1111122,1111122' 
ADCP,ioos:station:wmo:42390:1,2017-12-10T06:47:00Z,26.1290,-94.8980,63.4,342.0,40.8,13.7,'1111122,1111122,1111122' 
ADCP,ioos:station:wmo:42390:1,2017-12-10T08:27:00Z,26.1290,-94.8980,63.4,340.0,45.5,12.3,'1111122,1111122,1111122' 
ADCP,ioos:station:wmo:42390:1,2017-12-10T10:07:00Z,26.1290,-94.8980,63.4,337.0,38.2,15.1,'1111122,1111122,1111122' 
ADCP,ioos:station:wmo:42390:1,2017-12-10T11:47:00Z,26.1290,-94.8980,63.4,347.0,45.3,19.1,'1111122,1111122,1111122' 
ADCP,ioos:station:wmo:42390:1,2017-12-10T13:27:00Z,26.1290,-94.8980,63.3,349.0,36.3,6.1,'1111122,1111122,1111122' 
ADCP,ioos:station:wmo:42390:1,2017-12-10T15:07:00Z,26.1290,-94.8980,63.4,360.0,23.4,4.4,'1111122,1111122,1111122' 
ADCP,ioos:station:wmo:42390:1,2017-12-10T16:47:00Z,26.1290,-94.8980,63.4,354.0,33.8,9.6,'1111122,1111122,1111122' 
ADCP,ioos:station:wmo:42390:1,2017-12-10T18:27:00Z,26.1290,-94.8980,63.4,352.0,40.1,7.0,'1111122,1111122,1111122' 
ADCP,ioos:station:wmo:42390:1,2017-12-10T20:07:00Z,26.1290,-94.8980,63.4,351.0,29.0,8.6,'1111122,1111122,1111122' 
ADCP,ioos:station:wmo:42390:1,2017-12-10T21:47:00Z,26.1290,-94.8980,63.4,349.0,27.8,10.0,'1111122,1111122,1111122' 
ADCP,ioos:station:wmo:42390:1,2017-12-10T23:27:00Z,26.1290,-94.8980,63.4,4.0,25.1,5.7,'1111122,1111122,1111122' 
ADCP,ioos:station:wmo:42390:1,2017-12-11T01:27:00Z,26.1290,-94.8980,63.4,340.0,47.5,11.6,'1111122,1111122,1111122' 
ADCP,ioos:station:wmo:42390:1,2017-12-11T03:07:00Z,26.1290,-94.8980,63.4,346.0,38.2,6.5,'1111122,1111122,1111122' 
ADCP,ioos:station:wmo:42390:1,2017-12-11T04:47:00Z,26.1290,-94.8980,63.4,342.0,29.3,13.2,'1111122,1111122,1111122' 
ADCP,ioos:station:wmo:42390:1,2017-12-11T06:27:00Z,26.1290,-94.8980,63.4,3.0,32.4,7.1,'1111122,1111122,1111122' 
ADCP,ioos:station:wmo:42390:1,2017-12-11T08:07:00Z,26.1290,-94.8980,63.4,359.0,46.5,7.8,'1111122,1111122,1111122' 
ADCP,ioos:station:wmo:42390:1,2017-12-11T09:47:00Z,26.1290,-94.8980,63.4,357.0,48.1,10.0,'1111122,1111122,1111122' 
ADCP,ioos:station:wmo:42390:1,2017-12-11T11:27:00Z,26.1290,-94.8980,63.3,0.0,43.0,17.0,'1111122,1114422,1111122' 
ADCP,ioos:station:wmo:42390:1,2017-12-11T13:27:00Z,26.1290,-94.8980,63.4,356.0,46.0,13.1,'1111122,1111122,1111122' 
ADCP,ioos:station:wmo:42390:1,2017-12-11T15:07:00Z,26.1290,-94.8980,63.4,355.0,44.2,13.7,'1111122,1111122,1111122' 
ADCP,ioos:station:wmo:42390:1,2017-12-11T16:47:00Z,26.1290,-94.8980,63.4,359.0,55.1,12.5,'1111122,1111122,1111122' 
ADCP,ioos:station:wmo:42390:1,2017-12-11T18:27:00Z,26.1290,-94.8980,63.4,360.0,46.5,12.0,'1111122,1111122,1111122' 
ADCP,ioos:station:wmo:42390:1,2017-12-11T20:07:00Z,26.1290,-94.8980,63.4,353.0,48.7,9.2,'1111122,1111122,1111122' 
ADCP,ioos:station:wmo:42390:1,2017-12-11T21:47:00Z,26.1290,-94.8980,63.4,349.0,49.8,7.4,'1111122,1111122,1111122' 
ADCP,ioos:station:wmo:42390:1,2017-12-11T23:27:00Z,26.1290,-94.8980,63.4,347.0,28.9,9.6,'1111122,1111122,1111122' 
ADCP,ioos:station:wmo:42390:1,2017-12-12T01:07:00Z,26.1290,-94.8980,63.4,341.0,42.4,12.6,'1111122,1111122,1111122' 
ADCP,ioos:station:wmo:42390:1,2017-12-12T02:47:00Z,26.1290,-94.8980,63.4,349.0,37.8,9.0,'1111122,1111122,1111122' 
ADCP,ioos:station:wmo:42390:1,2017-12-12T04:27:00Z,26.1290,-94.8980,63.4,1.0,46.5,3.8,'1111122,1111122,1111122' 
ADCP,ioos:station:wmo:42390:1,2017-12-12T06:07:00Z,26.1290,-94.8980,63.4,354.0,42.2,9.4,'1111122,1111122,1111122' 
ADCP,ioos:station:wmo:42390:1,2017-12-12T07:47:00Z,26.1290,-94.8980,63.4,351.0,49.3,15.0,'1111122,1111122,1111122' 
ADCP,ioos:station:wmo:42390:1,2017-12-12T09:27:00Z,26.1290,-94.8980,63.4,347.0,52.6,16.5,'1111122,1111122,1111122' 
ADCP,ioos:station:wmo:42390:1,2017-12-12T11:07:00Z,26.1290,-94.8980,63.4,342.0,32.1,20.3,'1111122,1111122,1111122' 
ADCP,ioos:station:wmo:42390:1,2017-12-12T12:47:00Z,26.1290,-94.8980,63.4,324.0,27.0,21.5,'1111122,1111122,1111122' 
ADCP,ioos:station:wmo:42390:1,2017-12-12T14:27:00Z,26.1290,-94.8980,63.4,359.0,52.8,13.9,'1111122,1111122,1111122' 
ADCP,ioos:station:wmo:42390:1,2017-12-12T16:07:00Z,26.1290,-94.8980,63.4,352.0,56.3,14.4,'1111122,1111122,1111122' 
ADCP,ioos:station:wmo:42390:1,2017-12-12T17:47:00Z,26.1290,-94.8980,63.4,0.0,55.5,14.8,'1111122,1114422,1111122' 
ADCP,ioos:station:wmo:42390:1,2017-12-12T19:27:00Z,26.1290,-94.8980,63.4,353.0,55.5,13.3,'1111122,1111122,1111122' 
ADCP,ioos:station:wmo:42390:1,2017-12-12T21:07:00Z,26.1290,-94.8980,63.4,356.0,45.9,11.2,'1111122,1111122,1111122' 
ADCP,ioos:station:wmo:42390:1,2017-12-13T07:07:00Z,26.1290,-94.8980,63.4,356.0,56.2,16.2,'1111122,1111122,1111122' 
ADCP,ioos:station:wmo:42390:1,2017-12-13T08:47:00Z,26.1290,-94.8980,63.4,352.0,56.8,19.6,'1111122,1111122,1111122' 
ADCP,ioos:station:wmo:42390:1,2017-12-13T10:27:00Z,26.1290,-94.8980,63.4,357.0,61.8,18.2,'1111122,1111122,1111122' 
ADCP,ioos:station:wmo:42390:1,2017-12-13T12:07:00Z,26.1290,-94.8980,63.4,3.0,23.1,20.0,'1111122,1111122,1111122' 
ADCP,ioos:station:wmo:42390:1,2017-12-13T15:27:00Z,26.1290,-94.8980,63.4,355.0,54.2,16.1,'1111122,1111122,1111122' 
ADCP,ioos:station:wmo:42390:1,2017-12-13T17:07:00Z,26.1290,-94.8980,63.4,5.0,32.9,16.2,'1111122,1111122,1111122' 
ADCP,ioos:station:wmo:42390:1,2017-12-13T18:47:00Z,26.1290,-94.8980,63.4,2.0,56.4,15.6,'1111122,1111122,1111122' 
ADCP,ioos:station:wmo:42390:1,2017-12-13T20:27:00Z,26.1290,-94.8980,63.4,4.0,40.9,15.9,'1111122,1111122,1111122' 
ADCP,ioos:station:wmo:42390:1,2017-12-14T10:07:00Z,26.1290,-94.8980,63.4,3.0,46.6,16.2,'1111122,1111122,1111122' 
ADCP,ioos:station:wmo:42390:1,2017-12-14T11:47:00Z,26.1290,-94.8980,63.4,8.0,27.3,17.4,'1111122,1111122,1111122' 